Alexandria, LA

4:41 AM CST on January 18, 2017 (GMT -0600)
Alexandria International

Weather History for KAEX - January, 2001

Change the Weather History Date:

Monday, January 1, 2001

  Actual Average Record
Temperature  
Mean Temperature 32 °F 49 °F  
Max Temperature 37 °F 59 °F 81 °F (1952)
Min Temperature 25 °F 39 °F 17 °F (1964)
Degree Days  
Heating Degree Days 34 16  
Month to date heating degree days 16  
Since 1 July heating degree days 805  
Moisture  
Dew Point 24 °F    
Average Humidity 80    
Maximum Humidity 93    
Minimum Humidity 48    
Precipitation  
Precipitation 0.00 in 0.13 in 2.60 in (1911)
Month to date precipitation 0.13  
Year to date precipitation 0.13  
Snow  
Snow 0.00 in - 0.40 in (2001)
Since 1 July snowfall  
Snow Depth -    
Sea Level Pressure  
Sea Level Pressure 30.47 in    
Wind  
Wind Speed 5 mph (NE)    
Max Wind Speed 14 mph    
Max Gust Speed 20 mph    
Visibility 8 miles    
Events Snow    
T = Trace of Precipitation, MM = Missing Value Source: NWS Daily Summary

Daily Weather History Graph

Daily Weather History Graph

Search for Another Location

Airport or City:

Trip Planner

Search our weather history database for the weather conditions in past years. The results will help you decide how hot, cold, wet, or windy it might be!

Date:

Astronomy

Jan. 01, 2001 Rise Set
Actual Time 7:09 AM CST 5:18 PM CST
Civil Twilight 6:42 AM CST 5:45 PM CST
Nautical Twilight 6:12 AM CST 6:15 PM CST
Astronomical Twilight 5:42 AM CST 6:45 PM CST
Moon 11:37 AM CST (1/1) 11:35 PM CST (1/1)
Length of Visible Light 11h 02m
Length of Day
10h 09m
Waxing Crescent, 38% of the Moon is Illuminated
Jan 1
Waxing Crescent
Jan 2
First Quarter
Jan 9
Full
Jan 16
Last Quarter
Jan 24
New

Hourly Weather History & Observations

Time (CST) Temp. Windchill Dew Point Humidity Pressure Visibility Wind Dir Wind Speed Gust Speed Precip Events Conditions
12:01 AM 28.4 °F - 26.6 °F 93% 30.42 in 3.0 mi Calm Calm - 0.00 in Snow Light Snow
12:09 AM 28.4 °F 24.6 °F 26.6 °F 93% 30.42 in 2.5 mi East 3.5 mph - 0.00 in Snow Light Snow
12:22 AM 28.4 °F 24.6 °F 26.6 °F 93% 30.41 in 4.0 mi East 3.5 mph - 0.00 in Snow Light Snow
12:36 AM 28.4 °F - 26.6 °F 93% 30.42 in 6.0 mi Calm Calm - 0.00 in Snow Light Snow
12:53 AM 28.9 °F 23.9 °F 27.0 °F 92% 30.43 in 5.0 mi ESE 4.6 mph - 0.00 in Snow Light Snow
1:53 AM 30.0 °F - 28.0 °F 92% 30.43 in 9.0 mi Calm Calm - 0.00 in   Overcast
2:26 AM 30.2 °F - 28.4 °F 93% 30.42 in 8.0 mi Calm Calm - N/A   Overcast
2:53 AM 30.0 °F 25.2 °F 28.0 °F 92% 30.43 in 8.0 mi NNE 4.6 mph - N/A   Overcast
3:11 AM 30.2 °F 24.3 °F 28.4 °F 93% 30.41 in 5.0 mi NNE 5.8 mph - N/A   Overcast
3:53 AM 30.0 °F 25.2 °F 28.0 °F 92% 30.43 in 6.0 mi NNE 4.6 mph - 0.00 in   Overcast
4:26 AM 30.2 °F 23.4 °F 28.4 °F 93% 30.42 in 5.0 mi North 6.9 mph - 0.00 in Snow Light Snow
4:32 AM 30.2 °F 24.3 °F 28.4 °F 93% 30.42 in 5.0 mi NNE 5.8 mph - 0.00 in Snow Light Snow
4:53 AM 30.0 °F 22.4 °F 28.0 °F 92% 30.44 in 7.0 mi NNE 8.1 mph - 0.00 in   Overcast
5:53 AM 30.0 °F 24.1 °F 27.0 °F 88% 30.45 in 10.0 mi NNE 5.8 mph - N/A   Overcast
6:25 AM 28.4 °F 20.4 °F 26.6 °F 93% 30.44 in 10.0 mi NE 8.1 mph - N/A   Overcast
6:53 AM 28.9 °F 20.4 °F 27.0 °F 92% 30.47 in 10.0 mi NNE 9.2 mph - N/A   Overcast
7:11 AM 28.4 °F 19.1 °F 26.6 °F 93% 30.45 in 10.0 mi NE 10.4 mph - N/A   Overcast
7:53 AM 28.9 °F 21.1 °F 26.1 °F 89% 30.49 in 10.0 mi NE 8.1 mph - N/A   Overcast
8:53 AM 30.0 °F 21.7 °F 25.0 °F 82% 30.51 in 10.0 mi NE 9.2 mph - N/A   Overcast
9:13 AM 30.2 °F 20.8 °F 24.8 °F 80% 30.49 in 10.0 mi NNE 11.5 mph - N/A   Overcast
9:53 AM 30.9 °F 21.7 °F 25.0 °F 79% 30.52 in 10.0 mi NNE 11.5 mph - N/A   Overcast
10:53 AM 32.0 °F 23.6 °F 25.0 °F 75% 30.52 in 10.0 mi NE 10.4 mph - N/A   Overcast
11:06 AM 32.0 °F 24.2 °F 24.8 °F 75% 30.50 in 10.0 mi NNE 9.2 mph - N/A   Overcast
11:53 AM 33.1 °F 23.4 °F 25.0 °F 72% 30.49 in 10.0 mi NNE 13.8 mph 19.6 mph N/A   Overcast
12:53 PM 35.1 °F 26.9 °F 25.0 °F 67% 30.46 in 10.0 mi NE 11.5 mph - N/A   Overcast
1:53 PM 37.0 °F 31.0 °F 24.1 °F 59% 30.45 in 10.0 mi NE 8.1 mph 16.1 mph N/A   Clear
2:53 PM 37.9 °F 30.9 °F 21.0 °F 51% 30.44 in 10.0 mi NNE 10.4 mph 16.1 mph N/A   Clear
3:53 PM 37.9 °F 30.9 °F 19.9 °F 48% 30.45 in 10.0 mi NE 10.4 mph - N/A   Clear
5:53 PM 30.9 °F 23.5 °F 19.0 °F 61% 30.48 in 10.0 mi NNE 8.1 mph - N/A   Clear
6:53 PM 30.0 °F 20.5 °F 19.0 °F 64% 30.50 in 10.0 mi NE 11.5 mph - N/A   Clear
7:53 PM 28.0 °F 20.0 °F 18.0 °F 66% 30.53 in 10.0 mi NE 8.1 mph - N/A   Clear
8:53 PM 27.0 °F 19.5 °F 18.0 °F 69% 30.55 in 10.0 mi NE 6.9 mph - N/A   Clear
9:53 PM 26.1 °F 19.4 °F 18.0 °F 71% 30.56 in 10.0 mi ENE 5.8 mph - N/A   Clear
10:53 PM 26.1 °F 17.6 °F 15.1 °F 63% 30.57 in 10.0 mi NE 8.1 mph - N/A   Clear
11:53 PM 25.0 °F 18.1 °F 16.0 °F 69% 30.57 in 10.0 mi NE 5.8 mph - N/A   Clear